sat.trackr.live / text

‹ back to catalog

SITRO-AIS 18

NORAD 61790 · 2024-199BH

PAYLOAD ACTIVE UNKNOWN

§ Identity

Operator
Country
CIS
Launch date
2024-11-04
Launch site
VOSTO
Launch vehicle
Mass (kg)
RCS (m²)

External: N2YO · Heavens-Above · Gunter

§ Orbital elements

Epoch: 2026-09-22T19:47:02.626080Z

Period
96.11 min
Inclination
97.3186°
Eccentricity
0.0007986
Mean motion
14.98312065 rev/d
Perigee alt
566.6 km
Apogee alt
577.7 km
Semi-major
6,950.2 km
B*
2.0274e-4
RAAN
99.3574°
Arg perigee
99.1594°
Mean anomaly
261.0534°
Rev number
14,665

§ Raw data

SITRO-AIS 181 61790U 24199BH  26265.82433595  .00002361  00000+0  20274-3 0  99972 61790  97.3186  99.3574 0007986  99.1594 261.0534 14.98312065146655

JSON: /api/v1/satellites/61790 · /tle

For live sub-satellite position, see the globe view (requires WebGL).

§ Visibility from observer

Set your observer location to see the next 7 days of passes ≥ 10°. The values pass through the URL so the page stays shareable.

No JS? Fill the form by hand. The geolocation button needs JavaScript.

§ Radio — SatNOGS DB

ModeDescriptionDownlinkUplink
GMSK USP Mode U - GMSK2k4 - USP 401.115 MHz

1 transmitter · refreshed weekly from db.satnogs.org